Location: Muenchen
(48.1800°N, 11.5800°E)
Time: 12:15:23
(UTC+02:00)

ISS - All Passes

Search period start: 21 April 2014 00:00
Search period end: 01 May 2014 00:00
Orbit: 414 x 419 km, 51.6° (Epoch: 21 April)

Date Brightness Start Highest point End Pass type
(mag) Time Alt. Az. Time Alt. Az. Time Alt. Az.
21 Apr - 15:37:02 10° SSW 15:40:07 35° SE 15:43:13 10° ENE daylight
21 Apr - 17:13:26 10° W 17:16:45 62° NNW 17:20:06 10° ENE daylight
21 Apr - 18:50:34 10° WNW 18:53:49 45° N 18:57:04 10° E daylight
21 Apr - 20:27:23 10° WNW 20:30:45 84° SSW 20:34:07 10° ESE daylight
21 Apr - 22:04:45 10° W 22:07:06 18° SW 22:09:27 10° S visible
22 Apr - 14:48:59 10° SSW 14:51:42 23° SE 14:54:25 10° E daylight
22 Apr - 16:24:48 10° WSW 16:28:09 80° NNW 16:31:31 10° ENE daylight
22 Apr - 18:01:54 10° WNW 18:05:09 44° N 18:08:23 10° ENE daylight
22 Apr - 19:38:48 10° WNW 19:42:10 72° NNE 19:45:31 10° ESE daylight
22 Apr - 21:15:48 10° W 21:18:42 27° SW 21:21:35 10° SSE visible
23 Apr - 14:01:16 10° S 14:03:16 15° SE 14:05:15 10° E daylight
23 Apr - 15:36:12 10° WSW 15:39:31 74° SSE 15:42:53 10° ENE daylight
23 Apr - 17:13:10 10° W 17:16:25 46° N 17:19:40 10° ENE daylight
23 Apr - 18:50:09 10° WNW 18:53:29 57° NNE 18:56:47 10° E daylight
23 Apr - 20:26:59 10° WNW 20:30:10 41° SSW 20:33:20 10° SE daylight
24 Apr - 14:47:38 10° SW 14:50:53 49° SSE 14:54:08 10° ENE daylight
24 Apr - 16:24:21 10° W 16:27:38 52° NNW 16:30:56 10° ENE daylight
24 Apr - 18:01:26 10° WNW 18:04:42 48° N 18:07:58 10° E daylight
24 Apr - 19:38:12 10° WNW 19:41:32 62° SSW 19:44:50 10° SE daylight
24 Apr - 21:16:17 10° WSW 21:17:42 12° SW 21:19:07 10° SSW visible
25 Apr - 13:59:12 10° SSW 14:02:13 32° SE 14:05:16 10° E daylight
25 Apr - 15:35:29 10° W 15:38:49 64° NNW 15:42:09 10° ENE daylight
25 Apr - 17:12:36 10° WNW 17:15:51 44° N 17:19:05 10° ENE daylight
25 Apr - 18:49:25 10° WNW 18:52:47 89° SSW 18:56:08 10° ESE daylight
25 Apr - 20:26:41 10° W 20:29:09 19° SW 20:31:36 10° S daylight
26 Apr - 13:10:57 10° SSW 13:13:33 21° SE 13:16:10 10° E daylight
26 Apr - 14:46:37 10° WSW 14:49:58 85° NNW 14:53:19 10° ENE daylight
26 Apr - 16:23:41 10° WNW 16:26:55 44° N 16:30:09 10° ENE daylight
26 Apr - 18:00:35 10° WNW 18:03:56 69° NNE 18:07:16 10° ESE daylight
26 Apr - 19:37:31 10° W 19:40:28 29° SW 19:43:25 10° SSE daylight
27 Apr - 12:23:07 10° SSE 12:24:53 14° SE 12:26:39 10° ESE daylight
27 Apr - 13:57:46 10° WSW 14:01:05 69° SSE 14:04:25 10° ENE daylight
27 Apr - 15:34:41 10° W 15:37:56 47° N 15:41:11 10° ENE daylight
27 Apr - 17:11:41 10° WNW 17:14:59 55° NNE 17:18:16 10° E daylight
27 Apr - 18:48:28 10° WNW 18:51:41 44° SSW 18:54:53 10° SE daylight
28 Apr - 13:09:00 10° SW 13:12:12 45° SSE 13:15:25 10° ENE daylight
28 Apr - 14:45:37 10° W 14:48:54 54° NNW 14:52:12 10° ENE daylight
28 Apr - 16:22:41 10° WNW 16:25:57 47° N 16:29:12 10° E daylight
28 Apr - 17:59:27 10° WNW 18:02:47 67° SSW 18:06:06 10° SE daylight
28 Apr - 19:37:16 10° WSW 19:38:58 13° SW 19:40:41 10° SSW daylight
29 Apr - 12:20:21 10° SSW 12:23:17 30° SE 12:26:15 10° E daylight
29 Apr - 13:56:30 10° WSW 13:59:50 68° NNW 14:03:10 10° ENE daylight
29 Apr - 15:33:36 10° WNW 15:36:50 44° N 15:40:03 10° ENE daylight
29 Apr - 17:10:25 10° WNW 17:13:46 86° NNE 17:17:07 10° ESE daylight
29 Apr - 18:47:34 10° W 18:50:09 21° SW 18:52:44 10° S daylight
30 Apr - 11:31:55 10° S 11:34:23 19° SE 11:36:51 10° E daylight
30 Apr - 13:07:23 10° WSW 13:10:44 90° ESE 13:14:05 10° ENE daylight
30 Apr - 14:44:25 10° WNW 14:47:39 44° N 14:50:52 10° ENE daylight
30 Apr - 16:21:19 10° WNW 16:24:39 65° NNE 16:27:58 10° E daylight
30 Apr - 17:58:12 10° W 18:01:13 32° SW 18:04:13 10° SSE daylight
